Regional Weather Roundup
Issued by NWS

Home | Current Version | Previous Version | Text Only | Print | Product List | Glossary Off
Versions: 1 2 3 4 5 6 7 8 9 10 11 12 13 14 15 16 17 18 19 20 21 22 23 24 25 26 27 28 29 30 31 32 33 34 35 36 37 38 39 40 41 42 43 44 45 46 47 48 49 50

000
ASUS43 KFSD 310102
RWRSD

WEATHER ROUNDUP FOR SOUTH DAKOTA
NATIONAL WEATHER SERVICE SIOUX FALLS SD
800 PM CDT WED JUL 30 2014

NOTE: "FAIR" INDICATES FEW OR NO CLOUDS BELOW 12,000 FEET WITH NO
SIGNIFICANT WEATHER AND/OR OBSTRUCTIONS TO VISIBILITY.


SDZ001>005-009-010-012>017-310200-
NORTHWEST AND NORTH CENTRAL SOUTH DAKOTA

CITY           SKY/WX    TMP DP  RH WIND       PRES   REMARKS
BUFFALO          N/A     79  51  37 E8        30.10S
FAITH            N/A     81  53  37 NE8       30.11S
MOBRIDGE       MOSUNNY   80  59  48 NE7       30.06S
$$

SDZ012>016-024>037-041>051-057-063-072>074-310200-
SOUTHWEST AND SOUTH CENTRAL SOUTH DAKOTA

CITY           SKY/WX    TMP DP  RH WIND       PRES   REMARKS
RAPID CTY ARPT MOSUNNY   80  49  33 N7        30.15R
PIERRE         SUNNY     84  53  34 E6        30.04S
CUSTER         PTSUNNY   71  48  43 E7        30.29S
ELLSWORTH AFB  MOSUNNY   81  46  28 N10       30.15S
PHILIP         MOSUNNY   85  45  24 N10       30.06S
PINE RIDGE     PTSUNNY   79  50  36 SW5       30.15F
WINNER         MOCLDY    83  50  31 E6        30.07F
$$

SDZ004>011-016>023-039-040-310200-
NORTHEAST SOUTH DAKOTA

CITY           SKY/WX    TMP DP  RH WIND       PRES   REMARKS
ABERDEEN       CLEAR     75  55  49 NE3       30.08S
WATERTOWN      CLEAR     73  55  53 N3        30.09F
SISSETON         N/A     75  59  57 N3        30.06F
$$

SDZ017-020-022-023-036>040-048>070-310200-
SOUTHEAST SOUTH DAKOTA

CITY           SKY/WX    TMP DP  RH WIND       PRES   REMARKS
SIOUX FALLS    CLEAR     75  55  49 CALM      30.09F
HURON          CLEAR     78  55  44 NE6       30.07S
CHAMBERLAIN    MOCLDY    78  55  45 E5        30.07S
MITCHELL       CLEAR     76  60  57 SE5       30.08F
YANKTON        CLEAR     75  55  50 SE5       30.10S
$$

ABBREVIATIONS USED IN REMARKS
   TC - TEMPERATURE IN CELSIUS
  WCI - WIND CHILL INDEX
   HX - HEAT INDEX
  VSB - VISIBILITY




USA.gov is the U.S. government's official web portal to all federal, state and local government web resources and services.